Time,TemperatureF,DewpointF,PressureIn,WindDirection,WindDirectionDegrees,WindSpeedMPH,WindSpeedGustMPH,Humidity,HourlyPrecipIn,Conditions,Clouds,dailyrainin,SoftwareType,DateUTC
2013-02-17 00:00:00,40.0,-99.9,-100.00,SSW,211,5.0,-999.0,-999,-99.99,,,-99.99,,2013-02-17 08:00:00,
2013-02-17 01:00:00,39.0,-99.9,-100.00,South,191,3.0,-999.0,-999,-99.99,,,-99.99,,2013-02-17 09:00:00,
2013-02-17 02:00:00,39.0,-99.9,-100.00,SSE,152,2.0,-999.0,-999,-99.99,,,-99.99,,2013-02-17 10:00:00,
2013-02-17 03:00:00,39.0,-99.9,-100.00,SSE,161,3.0,-999.0,-999,-99.99,,,-99.99,,2013-02-17 11:00:00,
2013-02-17 04:00:00,39.0,-99.9,-100.00,SSE,152,5.0,-999.0,-999,-99.99,,,-99.99,,2013-02-17 12:00:00,
2013-02-17 05:00:00,38.0,-99.9,-100.00,SSE,147,5.0,-999.0,-999,-99.99,,,-99.99,,2013-02-17 13:00:00,
2013-02-17 06:00:00,38.0,-99.9,-100.00,SW,223,3.0,-999.0,-999,-99.99,,,-99.99,,2013-02-17 14:00:00,
2013-02-17 07:00:00,38.0,-99.9,-100.00,SW,215,5.0,-999.0,-999,-99.99,,,-99.99,,2013-02-17 15:00:00,
2013-02-17 08:00:00,37.0,-99.9,-100.00,SSW,204,5.0,-999.0,-999,-99.99,,,-99.99,,2013-02-17 16:00:00,
2013-02-17 09:00:00,38.0,-99.9,-100.00,South,170,5.0,-999.0,-999,-99.99,,,-99.99,,2013-02-17 17:00:00,
2013-02-17 10:00:00,39.0,-99.9,-100.00,SSE,166,5.0,-999.0,-999,-99.99,,,-99.99,,2013-02-17 18:00:00,
2013-02-17 11:00:00,41.0,-99.9,-100.00,SSE,159,5.0,-999.0,-999,-99.99,,,-99.99,,2013-02-17 19:00:00,
2013-02-17 12:00:00,43.0,-99.9,-100.00,SSW,205,5.0,-999.0,-999,-99.99,,,-99.99,,2013-02-17 20:00:00,
2013-02-17 13:00:00,43.0,-99.9,-100.00,WSW,248,6.0,-999.0,-999,-99.99,,,-99.99,,2013-02-17 21:00:00,
2013-02-17 14:00:00,43.0,-99.9,-100.00,WSW,240,5.0,-999.0,-999,-99.99,,,-99.99,,2013-02-17 22:00:00,
2013-02-17 16:00:00,44.0,-99.9,-100.00,SE,136,5.0,-999.0,-999,-99.99,,,-99.99,,2013-02-18 00:00:00,
2013-02-17 18:00:00,43.0,-99.9,-100.00,ESE,119,2.0,-999.0,-999,-99.99,,,-99.99,,2013-02-18 02:00:00,
2013-02-17 20:00:00,40.0,-99.9,-100.00,East,80,3.0,-999.0,-999,-99.99,,,-99.99,,2013-02-18 04:00:00,
2013-02-17 21:00:00,39.0,-99.9,-100.00,East,85,3.0,-999.0,-999,-99.99,,,-99.99,,2013-02-18 05:00:00,
2013-02-17 22:00:00,37.0,-99.9,-100.00,East,79,3.0,-999.0,-999,-99.99,,,-99.99,,2013-02-18 06:00:00,
2013-02-17 23:00:00,36.0,-99.9,-100.00,ENE,61,2.0,-999.0,-999,-99.99,,,-99.99,,2013-02-18 07:00:00,